Regional Weather Roundup
Issued by NWS Sioux Falls, SD

Home | Current Version | Previous Version | Graphics & Text | Print | Product List | Glossary Off
Versions: 1 2 3 4 5 6 7 8 9 10 11 12 13 14 15 16 17 18 19 20 21 22 23 24 25 26 27 28 29 30 31 32 33 34 35 36 37 38 39 40 41 42 43 44 45 46 47 48 49 50

000
ASUS43 KFSD 011702
RWRFSD

WEATHER ROUNDUP FOR SE SOUTH DAKOTA/SW MINNESOTA/NW IOWA
NATIONAL WEATHER SERVICE SIOUX FALLS SD
1200 PM CDT SUN MAY 01 2016

NOTE: "FAIR" INDICATES FEW OR NO CLOUDS BELOW 12,000 FEET WITH NO
SIGNIFICANT WEATHER AND OR OBSTRUCTIONS TO VISIBILITY.


SDZ038>040-050-052>070-011800-
SOUTHEAST SOUTH DAKOTA

CITY           SKY/WX    TMP DP  RH WIND       PRES   REMARKS
BROOKINGS      SUNNY     50  35  56 NE16G24   30.19F
CHAMBERLAIN    NOT AVBL
HURON          SUNNY     53  33  46 NE14      30.24S
MADISON        FAIR      48  43  81 N20G25    30.19S
MITCHELL       SUNNY     52  40  63 N16       30.23S
SIOUX FALLS    CLOUDY    49  40  71 N14       30.19S
WINNER         FAIR      54  34  46 N21G29    30.26S
YANKTON        CLOUDY    45  41  87 N12       30.20S
$$

MNZ071-072-080-081-089-090-097-098-011800-
SOUTHWEST MINNESOTA

CITY           SKY/WX    TMP DP  RH WIND       PRES   REMARKS
FAIRMONT       CLOUDY    46  37  71 N13       30.13R
JACKSON        CLOUDY    50  41  71 VRB16     30.14S
LUVERNE        CLOUDY    46  36  66 N13G21    30.18S
MARSHALL       SUNNY     52  35  52 N14G20    30.19F
MONTEVIDEO     SUNNY     55  32  41 E16G22    30.22S
REDWOOD FALLS  SUNNY     54  32  43 N14G21    30.17F
TRACY          CLOUDY    51  38  62 NE10      30.18F
WINDOM         CLOUDY    48  41  76 N13       30.16R
WORTHINGTON    CLOUDY    46  40  79 N21       30.16R
$$

IAZ001>003-012>014-020>022-031-032-NEZ013-014-SDZ071-011800-
NORTHWEST IOWA

CITY           SKY/WX    TMP DP  RH WIND       PRES   REMARKS
CHEROKEE       DRIZZLE   45  43  94 N10G16    30.13R
DENISON        RAIN      43  43 100 N15       30.07S
ESTHERVILLE    CLOUDY    45  40  82 N15       30.13R
SIOUX CITY     LGT RAIN  46  42  86 N14       30.16R
SPENCER        CLOUDY    46  38  73 N17       30.14R
STORM LAKE     LGT RAIN  43  41  93 N16G23    30.11S
$$

ABBREVIATIONS USED IN REMARKS
   TC - TEMPERATURE IN CELSIUS
  WCI - WIND CHILL INDEX
   HX - HEAT INDEX
  VSB - VISIBILITY




USA.gov is the U.S. government's official web portal to all federal, state and local government web resources and services.